GW0206 Weather Reports


time (UTC)temp
F
wind
direction
speed
knots
gust
knots
rain 1hr
in
rain 24hr
in
rain mn
in
humidity
%
barometer
mb
20260509233506 66 60 7.0 16.5 0.00 0.49 0.41 62 1005.5
20260509233022 66 34 8.7 16.5 0.00 0.49 0.41 62 1005.4
20260509232508 66 71 5.2 16.5 0.00 0.49 0.41 62 1005.4
20260509232012 66 39 7.8 15.6 0.00 0.49 0.41 62 1005.4
20260509231524 67 119 7.0 15.6 0.00 0.49 0.41 61 1005.2
20260509231007 67 65 7.8 22.6 0.00 0.49 0.41 60 1005.2
20260509230506 67 44 9.6 22.6 0.00 0.49 0.41 59 1005.1
20260509230022 68 59 9.6 20.0 0.00 0.49 0.41 59 1005.0
20260509225512 68 63 10.4 20.0 0.00 0.49 0.41 58 1005.0
20260509225015 69 28 11.3 20.0 0.00 0.49 0.41 58 1005.1
20260509224530 69 61 10.4 16.5 0.00 0.49 0.41 57 1005.0
20260509224009 69 44 8.7 16.5 0.00 0.49 0.41 58 1005.0
20260509223515 69 86 7.8 20.0 0.00 0.49 0.41 60 1004.9
20260509223020 69 31 11.3 20.9 0.00 0.49 0.41 58 1005.0
20260509222502 69 5 10.4 20.9 0.00 0.49 0.41 59 1005.0
20260509222002 69 33 8.7 16.5 0.00 0.49 0.41 58 1005.0
20260509221503 70 5 8.7 18.2 0.00 0.49 0.41 58 1005.1
20260509221002 69 44 6.1 18.2 0.00 0.49 0.41 59 1005.0
20260509220505 69 60 7.0 14.8 0.00 0.49 0.41 59 1005.0
20260509220004 69 28 7.0 22.6 0.00 0.49 0.41 58 1005.1
20260509215502 69 101 10.4 22.6 0.00 0.49 0.41 57 1005.0
20260509215002 69 36 10.4 20.9 0.00 0.49 0.41 57 1005.0
20260509214504 69 37 7.0 15.6 0.00 0.49 0.41 59 1004.9
20260509214002 69 348 10.4 15.6 0.00 0.49 0.41 57 1004.9
20260509213503 70 49 8.7 19.1 0.00 0.49 0.41 57 1005.0
20260509213005 70 65 11.3 19.1 0.00 0.49 0.41 58 1005.1
20260509212501 70 89 9.6 19.1 0.00 0.49 0.41 58 1005.1
20260509212002 69 61 5.2 20.0 0.00 0.49 0.41 61 1005.4
20260509211502 69 36 11.3 20.0 0.00 0.49 0.41 59 1005.5
20260509211003 69 40 11.3 15.6 0.00 0.49 0.41 59 1005.8
20260509210503 69 37 9.6 17.4 0.00 0.49 0.41 58 1005.8
20260509210004 69 53 8.7 19.1 0.00 0.49 0.41 60 1005.9
20260509205503 69 107 10.4 19.1 0.00 0.49 0.41 59 1005.9
20260509205002 69 14 10.4 17.4 0.00 0.49 0.41 58 1005.9
20260509204504 69 22 11.3 18.2 0.00 0.49 0.41 58 1006.0
20260509204002 69 23 8.7 18.2 0.00 0.49 0.41 57 1006.0
20260509203503 70 55 9.6 16.5 0.00 0.49 0.41 59 1006.0
20260509203005 69 63 7.8 14.8 0.00 0.49 0.41 60 1006.1
20260509202503 69 72 5.2 14.8 0.00 0.49 0.41 60 1006.1
20260509202004 69 71 6.1 15.6 0.00 0.49 0.41 60 1006.1
20260509201505 69 92 8.7 21.7 0.00 0.49 0.41 61 1006.2
20260509201003 69 91 12.2 21.7 0.00 0.50 0.41 58 1006.2
20260509200501 69 111 7.8 16.5 0.00 0.50 0.41 62 1006.2
20260509200003 68 60 7.8 16.5 0.00 0.50 0.41 64 1006.4
20260509195504 68 38 10.4 15.6 0.00 0.51 0.41 66 1006.5
20260509195001 66 43 5.2 16.5 0.00 0.51 0.41 69 1006.6
20260509194502 66 71 9.6 16.5 0.00 0.51 0.41 65 1006.7
20260509194003 66 32 7.8 14.8 0.00 0.51 0.41 64 1006.7
20260509193502 66 62 7.8 13.9 0.00 0.51 0.41 63 1006.8
20260509193007 67 55 7.8 14.8 0.00 0.51 0.41 64 1006.9
20260509192502 67 54 9.6 14.8 0.00 0.51 0.41 64 1006.9
20260509192004 67 67 5.2 14.8 0.00 0.51 0.41 68 1006.9
20260509191504 67 34 8.7 19.1 0.00 0.51 0.41 65 1006.9
20260509191003 67 59 12.2 19.1 0.00 0.51 0.41 67 1007.0
20260509190503 66 32 7.0 16.5 0.00 0.51 0.41 69 1007.0
20260509190009 66 26 8.7 14.8 0.00 0.51 0.41 69 1007.1
20260509185502 66 53 9.6 19.1 0.00 0.51 0.41 68 1007.1
20260509185008 66 49 7.0 19.1 0.00 0.51 0.41 65 1007.1
20260509184507 67 103 8.7 19.1 0.00 0.51 0.41 67 1007.1
20260509184002 66 53 12.2 19.1 0.00 0.52 0.41 68 1007.2
20260509183504 67 109 7.8 17.4 0.00 0.52 0.41 64 1007.1
20260509183007 67 57 8.7 14.8 0.00 0.52 0.41 65 1007.0
20260509182504 67 54 7.8 16.5 0.00 0.52 0.41 68 1007.1
20260509182004 66 80 11.3 16.5 0.00 0.52 0.41 67 1007.1
20260509181504 65 54 7.0 15.6 0.00 0.52 0.41 71 1007.1
20260509181003 65 46 7.8 16.5 0.00 0.52 0.41 67 1007.2
20260509180507 65 67 7.0 16.5 0.00 0.52 0.41 68 1007.1
20260509180007 65 88 9.6 16.5 0.00 0.52 0.41 71 1007.2
20260509175503 65 88 7.8 19.1 0.00 0.52 0.41 69 1007.2
20260509175003 64 45 9.6 19.1 0.00 0.52 0.41 70 1007.3
20260509174507 64 79 9.6 17.4 0.00 0.54 0.41 69 1007.3
20260509174003 64 68 9.6 17.4 0.00 0.54 0.41 71 1007.2
20260509173502 64 18 8.7 15.6 0.00 0.54 0.41 70 1007.2
20260509173005 64 51 8.7 16.5 0.00 0.54 0.41 72 1007.2
20260509172505 63 91 8.7 16.5 0.00 0.54 0.41 74 1007.2
20260509172004 63 65 7.8 14.8 0.00 0.54 0.41 70 1007.3
20260509171506 63 42 6.1 13.9 0.00 0.54 0.41 73 1007.3
20260509171002 62 67 7.0 16.5 0.00 0.54 0.41 74 1007.5
20260509170507 62 78 10.4 16.5 0.00 0.54 0.41 74 1007.6
20260509170008 61 109 8.7 16.5 0.00 0.54 0.41 76 1007.7
20260509165502 61 62 8.7 17.4 0.00 0.54 0.41 72 1007.7
20260509165003 62 80 8.7 18.2 0.00 0.54 0.41 74 1007.7
20260509164509 61 65 9.6 18.2 0.00 0.54 0.41 78 1007.6
20260509164006 61 67 7.0 14.8 0.00 0.54 0.41 77 1007.6
20260509163504 61 115 7.8 14.8 0.00 0.54 0.41 78 1007.6
20260509163014 61 57 6.1 13.0 0.00 0.54 0.41 80 1007.6
20260509162505 60 73 5.2 15.6 0.00 0.54 0.41 82 1007.6
20260509162003 60 76 7.8 15.6 0.00 0.54 0.41 81 1007.7
20260509161509 60 63 7.8 18.2 0.00 0.54 0.41 82 1007.7
20260509161005 59 68 7.8 18.2 0.00 0.54 0.41 82 1007.8
20260509160503 59 58 9.6 14.8 0.00 0.54 0.41 82 1007.8
20260509160012 59 121 8.7 14.8 0.00 0.54 0.41 84 1007.7
20260509155502 59 83 8.7 13.9 0.00 0.54 0.41 84 1007.7
20260509155004 58 34 6.1 13.0 0.00 0.54 0.41 87 1007.7
20260509154516 58 88 7.0 13.0 0.00 0.54 0.41 87 1007.8
20260509154003 57 35 7.8 12.2 0.00 0.54 0.41 87 1007.8
20260509153504 57 42 5.2 12.2 0.00 0.54 0.41 87 1007.8
20260509153017 57 92 5.2 10.4 0.00 0.54 0.41 90 1007.7
20260509152504 56 67 4.3 10.4 0.00 0.54 0.41 91 1007.8
20260509152004 55 61 4.3 10.4 0.00 0.54 0.41 90 1007.7
20260509151514 55 80 3.5 10.4 0.00 0.54 0.41 91 1007.6
20260509151003 55 90 4.3 13.9 0.00 0.54 0.41 91 1007.5
20260509150507 55 69 5.2 13.9 0.00 0.54 0.41 91 1007.4
20260509150013 55 71 3.5 8.7 0.00 0.54 0.41 91 1007.5
20260509145503 55 66 4.3 13.0 0.00 0.54 0.41 91 1007.4
20260509145003 54 61 4.3 13.0 0.00 0.54 0.41 91 1007.3
20260509144517 54 96 6.1 12.2 0.00 0.54 0.41 93 1007.3
20260509144004 54 84 4.3 12.2 0.00 0.54 0.41 93 1007.4
20260509143504 54 87 5.2 10.4 0.00 0.54 0.41 93 1007.4
20260509143019 54 92 3.5 10.4 0.00 0.54 0.41 93 1007.5
20260509142505 54 92 5.2 10.4 0.00 0.54 0.41 93 1007.5
20260509142008 54 90 6.1 11.3 0.00 0.54 0.41 94 1007.5
20260509141534 54 74 5.2 11.3 0.00 0.54 0.41 94 1007.5
20260509141004 54 72 6.1 13.0 0.00 0.54 0.41 94 1007.4
20260509140504 54 88 8.7 13.0 0.00 0.54 0.41 95 1007.2
20260509140011 54 53 5.2 12.2 0.00 0.54 0.41 97 1007.1
20260509135506 54 35 5.2 12.2 0.00 0.54 0.41 97 1007.1
20260509135007 53 61 6.1 12.2 0.00 0.54 0.41 97 1007.3
20260509134528 53 73 6.1 10.4 0.00 0.54 0.41 97 1007.4
20260509134006 53 51 4.3 9.6 0.00 0.54 0.41 97 1007.4
20260509133503 52 57 6.1 10.4 0.00 0.54 0.41 97 1007.4
20260509133018 52 44 6.1 10.4 0.00 0.54 0.41 97 1007.5
20260509132505 52 35 6.1 10.4 0.00 0.54 0.41 96 1007.6
20260509132003 52 46 4.3 10.4 0.00 0.54 0.41 96 1007.7
20260509131506 52 69 5.2 10.4 0.00 0.54 0.41 96 1007.7
20260509131003 52 12 4.3 9.6 0.00 0.54 0.41 96 1007.7
20260509130503 51 58 5.2 9.6 0.00 0.54 0.41 96 1007.8
20260509130005 51 53 4.3 9.6 0.00 0.54 0.41 96 1007.8
20260509125508 51 46 4.3 9.6 0.00 0.54 0.41 96 1007.9
20260509125005 51 88 5.2 9.6 0.00 0.54 0.41 96 1007.9
20260509124511 51 60 3.5 8.7 0.00 0.54 0.41 96 1007.9
20260509124002 51 44 5.2 8.7 0.00 0.54 0.41 96 1007.9
20260509123504 51 79 3.5 7.8 0.00 0.54 0.41 96 1007.9
20260509123017 51 55 4.3 8.7 0.00 0.54 0.41 96 1007.7
20260509122506 51 52 3.5 8.7 0.00 0.54 0.41 97 1007.7
20260509122003 51 63 3.5 8.7 0.00 0.54 0.41 97 1007.8
20260509121511 51 69 3.5 8.7 0.00 0.54 0.41 97 1007.9
20260509121005 51 66 2.6 8.7 0.00 0.54 0.41 97 1007.9
20260509120504 51 61 4.3 8.7 0.00 0.54 0.41 96 1007.9
20260509120012 51 34 3.5 9.6 0.00 0.54 0.41 96 1007.9
20260509115503 51 19 3.5 9.6 0.00 0.54 0.41 96 1007.9
20260509115003 51 40 4.3 8.7 0.00 0.54 0.41 96 1008.0
20260509114506 51 5 3.5 7.8 0.00 0.54 0.41 97 1008.0
20260509114004 50 46 2.6 8.7 0.00 0.54 0.41 96 1008.0
20260509113504 50 40 3.5 8.7 0.00 0.54 0.41 96 1007.9
20260509113012 50 34 3.5 7.8 0.00 0.54 0.41 97 1007.8
20260509112504 50 5 2.6 7.0 0.00 0.54 0.41 96 1007.9
20260509112008 50 360 2.6 7.0 0.00 0.54 0.41 96 1007.9
20260509111514 50 38 1.7 6.1 0.00 0.54 0.41 96 1007.9
20260509111003 50 72 2.6 4.3 0.00 0.54 0.41 96 1007.8
20260509110505 50 44 1.7 5.2 0.00 0.54 0.41 96 1007.7
20260509110015 50 26 2.6 5.2 0.00 0.54 0.41 96 1007.6
20260509105510 50 44 1.7 5.2 0.00 0.54 0.41 96 1007.6
20260509105004 50 5 1.7 5.2 0.00 0.54 0.41 96 1007.5
20260509104514 50 53 2.6 5.2 0.00 0.55 0.41 96 1007.5
20260509104004 50 36 2.6 5.2 0.00 0.55 0.41 96 1007.5
20260509103503 50 36 0.9 5.2 0.00 0.55 0.41 96 1007.5
20260509103006 50 37 1.7 6.1 0.01 0.55 0.41 96 1007.5
20260509102502 50 17 2.6 7.0 0.01 0.55 0.41 96 1007.4
20260509102006 50 12 2.6 7.0 0.01 0.55 0.41 96 1007.4
20260509101513 50 52 2.6 7.0 0.01 0.55 0.41 96 1007.5
20260509101005 50 56 1.7 4.3 0.01 0.55 0.41 96 1007.5
20260509100506 50 58 2.6 7.8 0.02 0.55 0.41 96 1007.5
20260509100019 50 5 2.6 7.8 0.02 0.55 0.41 96 1007.5
20260509095505 50 44 1.7 7.0 0.03 0.55 0.41 96 1007.6
20260509095006 50 46 2.6 7.0 0.04 0.55 0.41 96 1007.7
20260509094529 50 42 1.7 7.0 0.04 0.55 0.41 96 1007.7
20260509094007 50 34 2.6 5.2 0.04 0.55 0.41 96 1007.7
20260509093505 50 21 3.5 8.7 0.05 0.55 0.41 96 1007.7
20260509093020 50 28 4.3 8.7 0.04 0.54 0.40 96 1007.8
20260509092508 50 351 3.5 7.8 0.05 0.54 0.40 96 1007.8
20260509092004 50 24 2.6 7.0 0.06 0.54 0.40 96 1007.8
20260509091508 50 26 3.5 8.7 0.07 0.54 0.40 96 1007.8
20260509091006 50 35 3.5 8.7 0.07 0.54 0.40 96 1007.8
20260509090507 50 26 3.5 7.8 0.06 0.52 0.39 97 1007.9
20260509090013 50 49 3.5 7.8 0.07 0.52 0.39 97 1008.0
20260509085506 50 66 2.6 7.8 0.06 0.52 0.38 96 1008.0
20260509085007 50 58 2.6 7.8 0.06 0.51 0.37 96 1008.1
20260509084520 50 30 2.6 7.8 0.07 0.51 0.37 96 1008.1
20260509084003 50 32 2.6 7.8 0.08 0.51 0.37 96 1008.1
20260509083507 50 9 2.6 7.0 0.07 0.50 0.36 96 1008.2
20260509083023 50 17 2.6 7.0 0.08 0.50 0.36 96 1008.2
20260509082503 49 352 3.5 5.2 0.07 0.49 0.35 96 1008.3
20260509082007 49 25 1.7 6.1 0.07 0.48 0.34 96 1008.3
20260509081533 49 13 3.5 6.1 0.06 0.47 0.33 96 1008.5
20260509081009 49 31 1.7 6.1 0.06 0.47 0.33 96 1008.5
20260509080504 49 17 2.6 7.8 0.08 0.47 0.33 96 1008.5
20260509080010 49 19 2.6 7.8 0.07 0.46 0.32 96 1008.5
20260509075505 49 15 1.7 6.1 0.08 0.46 0.32 96 1008.3
20260509075005 49 329 2.6 7.0 0.08 0.45 0.31 96 1008.3
20260509074516 49 5 2.6 7.0 0.08 0.44 0.30 96 1008.4
20260509074008 50 24 2.6 5.2 0.09 0.43 0.29 96 1008.6
20260509073508 50 12 1.7 5.2 0.09 0.43 0.29 96 1008.6
20260509073032 50 17 1.7 3.5 0.09 0.42 0.28 96 1008.5
20260509072507 50 360 0.9 3.5 0.11 0.42 0.28 96 1008.5
20260509072012 50 5 1.7 7.0 0.13 0.41 0.27 96 1008.6
20260509071538 50 5 2.6 7.0 0.14 0.41 0.27 96 1008.6
20260509071006 50 13 0.9 3.5 0.16 0.41 0.27 96 1008.7
20260509070513 50 355 1.7 3.5 0.16 0.39 0.25 96 1008.8
20260509070039 50 9 1.7 3.5 0.16 0.39 0.25 96 1008.7
20260509065513 50 29 0.9 4.3 0.16 0.38 0.24 96 1008.9
20260509065007 50 23 1.7 7.0 0.16 0.37 0.23 96 1008.9
20260509064514 50 17 1.7 7.0 0.16 0.36 0.22 96 1008.9
20260509064008 50 12 2.6 5.2 0.15 0.34 0.20 96 1008.9
20260509063506 50 19 1.7 5.2 0.16 0.34 0.20 96 1008.8
20260509063037 50 9 1.7 5.2 0.16 0.33 0.19 96 1009.0
20260509062508 50 5 1.7 6.1 0.14 0.31 0.17 96 1008.9
20260509062012 50 24 1.7 6.1 0.11 0.28 0.14 96 1009.0
20260509061516 50 5 0.9 4.3 0.10 0.27 0.13 96 1009.0
20260509061009 50 355 0.9 3.5 0.08 0.25 0.11 96 1009.2
20260509060510 50 40 1.7 3.5 0.06 0.24 0.09 96 1009.2
20260509060037 50 17 1.7 4.3 0.06 0.24 0.09 96 1009.3
20260509055507 50 30 0.9 4.3 0.05 0.23 0.08 96 1009.4
20260509055013 50 13 1.7 4.3 0.05 0.22 0.07 96 1009.4
20260509054529 50 28 1.7 4.3 0.04 0.21 0.06 96 1009.3
20260509054007 50 352 0.9 3.5 0.03 0.20 0.05 95 1009.5
20260509053507 50 14 0.9 3.5 0.02 0.19 0.04 96 1009.5
20260509053029 50 9 0.9 3.5 0.01 0.18 0.03 95 1009.6
20260509052506 50 349 0.9 2.6 0.01 0.18 0.03 95 1009.6
20260509052005 50 341 0.9 3.5 0.01 0.18 0.03 95 1009.6
20260509051523 50 329 0.9 3.5 0.02 0.18 0.03 95 1009.6
20260509051003 50 302 1.7 4.3 0.02 0.18 0.03 95 1009.6
20260509050502 50 317 1.7 4.3 0.02 0.18 0.03 95 1009.6
20260509050007 50 303 1.7 4.3 0.03 0.18 0.03 95 1009.7
20260509045504 49 309 1.7 3.5 0.03 0.18 0.03 95 1009.7
20260509045002 50 331 0.0 3.5 0.02 0.17 0.02 95 1009.8
20260509044509 49 321 0.9 3.5 0.02 0.17 0.02 95 1009.8
20260509044003 49 294 1.7 3.5 0.02 0.17 0.02 95 1009.7
20260509043503 49 327 0.9 3.5 0.02 0.17 0.02 95 1009.8
20260509043014 49 307 0.9 3.5 0.03 0.17 0.02 95 1009.9
20260509042507 49 300 0.9 2.6 0.03 0.17 0.02 95 1009.8
20260509042002 49 286 0.0 1.7 0.03 0.17 0.02 95 1010.0
20260509041511 49 286 0.0 2.6 0.02 0.16 0.01 95 1010.0
20260509041007 49 286 0.9 2.6 0.02 0.16 0.01 95 1010.0
20260509040507 49 286 0.9 2.6 0.02 0.16 0.01 95 1010.0
20260509040010 49 286 0.9 2.6 0.01 0.15 0.00 95 1010.1
20260509035509 49 279 1.7 3.5 0.02 0.15 0.15 95 1010.1
20260509035009 49 288 1.7 3.5 0.03 0.15 0.15 95 1010.2
20260509034508 49 292 0.9 2.6 0.03 0.15 0.15 95 1010.3
20260509034003 49 309 0.9 3.5 0.03 0.15 0.15 94 1010.4
20260509033502 49 296 0.9 3.5 0.03 0.15 0.15 94 1010.6
20260509033015 49 303 1.7 3.5 0.02 0.14 0.14 94 1010.6
20260509032504 49 308 1.7 3.5 0.02 0.14 0.14 94 1010.7
20260509032006 49 333 0.9 2.6 0.02 0.14 0.14 94 1010.8
20260509031514 49 292 0.0 1.7 0.03 0.14 0.14 94 1010.8
20260509031006 49 292 0.0 1.7 0.03 0.14 0.14 94 1010.9
20260509030506 49 292 0.0 3.5 0.03 0.14 0.14 94 1010.9
20260509030020 49 289 0.9 3.5 0.03 0.14 0.14 94 1010.7
20260509025508 49 278 0.9 3.5 0.02 0.13 0.13 94 1010.9
20260509025003 49 309 1.7 6.1 0.01 0.12 0.12 94 1011.0
20260509024517 49 309 1.7 7.0 0.01 0.12 0.12 94 1011.1
20260509024010 49 296 1.7 7.0 0.02 0.12 0.12 94 1011.1
20260509023511 49 304 1.7 6.1 0.02 0.12 0.12 94 1011.0
20260509023008 49 302 2.6 7.8 0.02 0.12 0.12 94 1011.1
20260509022504 49 296 3.5 7.8 0.02 0.12 0.12 94 1011.1
20260509022004 49 308 1.7 6.1 0.02 0.12 0.12 94 1011.2
20260509021512 49 300 2.6 6.1 0.01 0.11 0.11 94 1011.2
20260509021003 49 302 1.7 3.5 0.01 0.11 0.11 94 1011.2
20260509020504 49 282 1.7 3.5 0.01 0.11 0.11 93 1011.2
20260509020032 49 272 1.7 3.5 0.02 0.11 0.11 93 1011.2
20260509015505 49 279 1.7 3.5 0.02 0.11 0.11 93 1011.3
20260509015005 50 279 0.9 3.5 0.02 0.11 0.11 93 1011.3
20260509014538 50 267 0.9 3.5 0.02 0.11 0.11 93 1011.2
20260509014006 50 267 1.7 2.6 0.01 0.10 0.10 93 1011.2
20260509013504 50 267 0.0 1.7 0.02 0.10 0.10 93 1011.2
20260509013023 50 267 0.9 2.6 0.02 0.10 0.10 93 1011.1
20260509012509 50 250 0.9 2.6 0.02 0.10 0.10 93 1011.0
20260509012014 50 277 1.7 2.6 0.02 0.10 0.10 93 1011.1
20260509011516 50 248 0.9 2.6 0.02 0.10 0.10 92 1011.1
20260509011003 50 252 0.0 2.6 0.02 0.10 0.10 92 1011.1
20260509010502 50 271 0.0 2.6 0.02 0.10 0.10 92 1011.1
20260509010012 50 254 0.0 1.7 0.02 0.09 0.09 92 1011.1
20260509005503 50 130 0.0 1.7 0.02 0.09 0.09 92 1011.0
20260509005006 50 130 0.0 1.7 0.02 0.09 0.09 92 1010.9
20260509004522 50 130 0.0 0.9 0.02 0.09 0.09 91 1010.9
20260509004006 50 130 0.0 0.0 0.02 0.09 0.09 91 1010.7
20260509003509 50 130 0.0 0.9 0.01 0.08 0.08 91 1010.7
20260509003030 51 130 0.0 3.5 0.01 0.08 0.08 91 1010.6
20260509002510 51 130 0.9 3.5 0.01 0.08 0.08 91 1010.6
20260509002004 51 278 0.9 2.6 0.01 0.08 0.08 90 1010.6
20260509001523 51 241 0.0 1.7 0.01 0.08 0.08 90 1010.8
20260509001008 51 241 0.0 2.6 0.01 0.08 0.08 89 1010.8
20260509000503 51 117 0.0 3.5 0.01 0.08 0.08 89 1010.9
20260509000020 51 141 0.0 5.2 0.00 0.07 0.07 89 1011.2
20260508235508 51 94 2.6 6.1 0.00 0.07 0.07 89 1011.3
20260508235004 51 111 1.7 6.1 0.00 0.07 0.07 88 1011.0
20260508234512 52 190 0.9 3.5 0.00 0.07 0.07 88 1010.4
20260508234004 52 65 1.7 3.5 0.00 0.07 0.07 87 1010.4